"Time","Value","Approval","myLocation"
"2023-05-06 00:00",5.59759168751203,"Approved","OW463"
"2023-05-06 01:00",5.5985929382336,"Approved","OW463"
"2023-05-06 02:00",5.59959418895517,"Approved","OW463"
"2023-05-06 03:00",5.60159543967674,"Approved","OW463"
"2023-05-06 04:00",5.60159669039831,"Approved","OW463"
"2023-05-06 05:00",5.60259794111988,"Approved","OW463"
"2023-05-06 06:00",5.60059919184145,"Approved","OW463"
"2023-05-06 07:00",5.60060044256302,"Approved","OW463"
"2023-05-06 08:00",5.59760169328459,"Approved","OW463"
"2023-05-06 09:00",5.59560294400616,"Approved","OW463"
"2023-05-06 10:00",5.59460419472773,"Approved","OW463"
"2023-05-06 11:00",5.5926054454493,"Approved","OW463"
"2023-05-06 12:00",5.59160669617087,"Approved","OW463"
"2023-05-06 13:00",5.59060794689244,"Approved","OW463"
"2023-05-06 14:00",5.58860919761401,"Approved","OW463"
"2023-05-06 15:00",5.58861044833558,"Approved","OW463"
"2023-05-06 16:00",5.58961169905715,"Approved","OW463"
"2023-05-06 17:00",5.59061294977872,"Approved","OW463"
"2023-05-06 18:00",5.59161420050029,"Approved","OW463"
"2023-05-06 19:00",5.59261545122186,"Approved","OW463"
"2023-05-06 20:00",5.59361670194343,"Approved","OW463"
"2023-05-06 21:00",5.592617952665,"Approved","OW463"
"2023-05-06 22:00",5.59261920338657,"Approved","OW463"
"2023-05-06 23:00",5.59262045410814,"Approved","OW463"
"2023-05-07 00:00",5.59262170482971,"Approved","OW463"
"2023-05-07 01:00",5.59262295555128,"Approved","OW463"
"2023-05-07 02:00",5.59162420627285,"Approved","OW463"
"2023-05-07 03:00",5.59162545699442,"Approved","OW463"
"2023-05-07 04:00",5.59162670771599,"Approved","OW463"
"2023-05-07 05:00",5.59162795843756,"Approved","OW463"
"2023-05-07 06:00",5.59062920915913,"Approved","OW463"
"2023-05-07 07:00",5.5896304598807,"Approved","OW463"
"2023-05-07 08:00",5.59063171060227,"Approved","OW463"
"2023-05-07 09:00",5.58963296132384,"Approved","OW463"
"2023-05-07 10:00",5.59063421204541,"Approved","OW463"
"2023-05-07 11:00",5.59063546276698,"Approved","OW463"
"2023-05-07 12:00",5.59063671348855,"Approved","OW463"
"2023-05-07 13:00",5.59063796421012,"Approved","OW463"
"2023-05-07 14:00",5.59263921493169,"Approved","OW463"
"2023-05-07 15:00",5.59264046565326,"Approved","OW463"
"2023-05-07 16:00",5.59564171637483,"Approved","OW463"
"2023-05-07 17:00",5.5976429670964,"Approved","OW463"
"2023-05-07 18:00",5.59764421781797,"Approved","OW463"
"2023-05-07 19:00",5.59764546853954,"Approved","OW463"
"2023-05-07 20:00",5.59664671926111,"Approved","OW463"
"2023-05-07 21:00",5.59464796998268,"Approved","OW463"
"2023-05-07 22:00",5.59364922070425,"Approved","OW463"
"2023-05-07 23:00",5.59365047142582,"Approved","OW463"
"2023-05-08 00:00",5.59065172214739,"Approved","OW463"
"2023-05-08 01:00",5.58765297286896,"Approved","OW463"
"2023-05-08 02:00",5.58565422359053,"Approved","OW463"
"2023-05-08 03:00",5.5836554743121,"Approved","OW463"
"2023-05-08 04:00",5.58465672503367,"Approved","OW463"
"2023-05-08 05:00",5.58565797575524,"Approved","OW463"
"2023-05-08 06:00",5.58565922647681,"Approved","OW463"
"2023-05-08 07:00",5.58666047719838,"Approved","OW463"
"2023-05-08 08:00",5.58566172791995,"Approved","OW463"
"2023-05-08 09:00",5.58366297864152,"Approved","OW463"
"2023-05-08 10:00",5.58166422936309,"Approved","OW463"
"2023-05-08 11:00",5.58066548008466,"Approved","OW463"
"2023-05-08 12:00",5.57866673080623,"Approved","OW463"
"2023-05-08 13:00",5.5776679815278,"Approved","OW463"
"2023-05-08 14:00",5.57866923224937,"Approved","OW463"
"2023-05-08 15:00",5.57967048297094,"Approved","OW463"
"2023-05-08 16:00",5.57967173369251,"Approved","OW463"
"2023-05-08 17:00",5.57767298441409,"Approved","OW463"
"2023-05-08 18:00",5.57567423513566,"Approved","OW463"
"2023-05-08 19:00",5.57267548585722,"Approved","OW463"
"2023-05-08 20:00",5.5716767365788,"Approved","OW463"
"2023-05-08 21:00",5.56867798730037,"Approved","OW463"
"2023-05-08 22:00",5.57167923802194,"Approved","OW463"
"2023-05-08 23:00",5.56968048874351,"Approved","OW463"
"2023-05-09 00:00",5.56968173946508,"Approved","OW463"
"2023-05-09 01:00",5.57068299018665,"Approved","OW463"
"2023-05-09 02:00",5.57168424090822,"Approved","OW463"
"2023-05-09 03:00",5.57468549162979,"Approved","OW463"
"2023-05-09 04:00",5.57768674235136,"Approved","OW463"
"2023-05-09 05:00",5.58268799307293,"Approved","OW463"
"2023-05-09 06:00",5.5856892437945,"Approved","OW463"
"2023-05-09 07:00",5.58769049451607,"Approved","OW463"
"2023-05-09 08:00",5.58869174523764,"Approved","OW463"
"2023-05-09 09:00",5.58869299595921,"Approved","OW463"
"2023-05-09 10:00",5.59169424668078,"Approved","OW463"
"2023-05-09 11:00",5.59469549740235,"Approved","OW463"
"2023-05-09 12:00",5.59769674812392,"Approved","OW463"
"2023-05-09 13:00",5.59969799884549,"Approved","OW463"
"2023-05-09 14:00",5.60169924956706,"Approved","OW463"
"2023-05-09 15:00",5.60570050028863,"Approved","OW463"
"2023-05-09 16:00",5.6077017510102,"Approved","OW463"
"2023-05-09 17:00",5.60670300173177,"Approved","OW463"
"2023-05-09 18:00",5.60570425245334,"Approved","OW463"
"2023-05-09 19:00",5.60570550317491,"Approved","OW463"
"2023-05-09 20:00",5.60270675389648,"Approved","OW463"
"2023-05-09 21:00",5.59370800461805,"Approved","OW463"
"2023-05-09 22:00",5.59770925533962,"Approved","OW463"
"2023-05-09 23:00",5.59371050606119,"Approved","OW463"
"2023-05-10 00:00",5.59071175678276,"Approved","OW463"
"2023-05-10 01:00",5.58771300750433,"Approved","OW463"
"2023-05-10 02:00",5.5817142582259,"Approved","OW463"
"2023-05-10 03:00",5.58571550894747,"Approved","OW463"
"2023-05-10 04:00",5.58671675966904,"Approved","OW463"
"2023-05-10 05:00",5.59071801039061,"Approved","OW463"
"2023-05-10 06:00",5.59271926111218,"Approved","OW463"
"2023-05-10 07:00",5.59172051183375,"Approved","OW463"
"2023-05-10 08:00",5.59072176255532,"Approved","OW463"
"2023-05-10 09:00",5.58972301327689,"Approved","OW463"
"2023-05-10 10:00",5.58772426399846,"Approved","OW463"
"2023-05-10 11:00",5.58772551472003,"Approved","OW463"
"2023-05-10 12:00",5.5867267654416,"Approved","OW463"
"2023-05-10 13:00",5.58672801616317,"Approved","OW463"
"2023-05-10 14:00",5.58572926688474,"Approved","OW463"
"2023-05-10 15:00",5.58573051760631,"Approved","OW463"
"2023-05-10 16:00",5.58373176832788,"Approved","OW463"
"2023-05-10 17:00",5.58573301904945,"Approved","OW463"
"2023-05-10 18:00",5.58373426977102,"Approved","OW463"
"2023-05-10 19:00",5.58173552049259,"Approved","OW463"
"2023-05-10 20:00",5.57973677121416,"Approved","OW463"
"2023-05-10 21:00",5.57773802193573,"Approved","OW463"
"2023-05-10 22:00",5.5757392726573,"Approved","OW463"
"2023-05-10 23:00",5.57374052337887,"Approved","OW463"
"2023-05-11 00:00",5.57374177410044,"Approved","OW463"
"2023-05-11 01:00",5.57374302482201,"Approved","OW463"
"2023-05-11 02:00",5.57374427554358,"Approved","OW463"
"2023-05-11 03:00",5.57374552626515,"Approved","OW463"
"2023-05-11 04:00",5.57574677698672,"Approved","OW463"
"2023-05-11 05:00",5.58174802770829,"Approved","OW463"
"2023-05-11 06:00",5.58674927842986,"Approved","OW463"
"2023-05-11 07:00",5.59075052915143,"Approved","OW463"
"2023-05-11 08:00",5.591751779873,"Approved","OW463"
"2023-05-11 09:00",5.59475303059457,"Approved","OW463"
"2023-05-11 10:00",5.59475428131614,"Approved","OW463"
"2023-05-11 11:00",5.59575553203771,"Approved","OW463"
"2023-05-11 12:00",5.59675678275928,"Approved","OW463"
"2023-05-11 13:00",5.59775803348085,"Approved","OW463"
"2023-05-11 14:00",5.59975928420242,"Approved","OW463"
"2023-05-11 15:00",5.60176053492399,"Approved","OW463"
"2023-05-11 16:00",5.60376178564556,"Approved","OW463"
"2023-05-11 17:00",5.60476303636714,"Approved","OW463"
"2023-05-11 18:00",5.60476428708871,"Approved","OW463"
"2023-05-11 19:00",5.60276553781028,"Approved","OW463"
"2023-05-11 20:00",5.59776678853185,"Approved","OW463"
"2023-05-11 21:00",5.60076803925342,"Approved","OW463"
"2023-05-11 22:00",5.59476928997499,"Approved","OW463"
"2023-05-11 23:00",5.59177054069656,"Approved","OW463"
"2023-05-12 00:00",5.58877179141813,"Approved","OW463"
"2023-05-12 01:00",5.5867730421397,"Approved","OW463"
"2023-05-12 02:00",5.58577429286127,"Approved","OW463"
"2023-05-12 03:00",5.58577554358284,"Approved","OW463"
"2023-05-12 04:00",5.58577679430441,"Approved","OW463"
"2023-05-12 05:00",5.58977804502598,"Approved","OW463"
"2023-05-12 06:00",5.59277929574755,"Approved","OW463"
"2023-05-12 07:00",5.59578054646912,"Approved","OW463"
"2023-05-12 08:00",5.59778179719069,"Approved","OW463"
"2023-05-12 09:00",5.60078304791226,"Approved","OW463"
"2023-05-12 10:00",5.60278429863383,"Approved","OW463"
"2023-05-12 11:00",5.6037855493554,"Approved","OW463"
"2023-05-12 12:00",5.60478680007697,"Approved","OW463"
"2023-05-12 13:00",5.60378805079854,"Approved","OW463"
"2023-05-12 14:00",5.60578930152011,"Approved","OW463"
"2023-05-12 15:00",5.60679055224168,"Approved","OW463"
"2023-05-12 16:00",5.60779180296325,"Approved","OW463"
"2023-05-12 17:00",5.59879305368482,"Approved","OW463"
"2023-05-12 18:00",5.61479430440639,"Approved","OW463"
"2023-05-12 19:00",5.60979555512796,"Approved","OW463"
"2023-05-12 20:00",5.60479680584953,"Approved","OW463"
"2023-05-12 21:00",5.6057980565711,"Approved","OW463"
"2023-05-12 22:00",5.60279930729267,"Approved","OW463"
"2023-05-12 23:00",5.59980055801424,"Approved","OW463"
"2023-05-13 00:00",5.59680180873581,"Approved","OW463"
"2023-05-13 01:00",5.59580305945738,"Approved","OW463"
"2023-05-13 02:00",5.59380431017895,"Approved","OW463"
"2023-05-13 03:00",5.59380556090052,"Approved","OW463"
"2023-05-13 04:00",5.59480681162209,"Approved","OW463"
"2023-05-13 05:00",5.59780806234366,"Approved","OW463"
"2023-05-13 06:00",5.60080931306523,"Approved","OW463"
"2023-05-13 07:00",5.6008105637868,"Approved","OW463"
"2023-05-13 08:00",5.60281181450837,"Approved","OW463"
"2023-05-13 09:00",5.60381306522994,"Approved","OW463"
"2023-05-13 10:00",5.60481431595151,"Approved","OW463"
"2023-05-13 11:00",5.60581556667308,"Approved","OW463"
"2023-05-13 12:00",5.60681681739465,"Approved","OW463"
"2023-05-13 13:00",5.60781806811622,"Approved","OW463"
"2023-05-13 14:00",5.60881931883779,"Approved","OW463"
"2023-05-13 15:00",5.60982056955936,"Approved","OW463"
"2023-05-13 16:00",5.60982182028093,"Approved","OW463"
"2023-05-13 17:00",5.6108230710025,"Approved","OW463"
"2023-05-13 18:00",5.60782432172407,"Approved","OW463"
"2023-05-13 19:00",5.60482557244564,"Approved","OW463"
"2023-05-13 20:00",5.60182682316721,"Approved","OW463"
"2023-05-13 21:00",5.59782807388878,"Approved","OW463"
"2023-05-13 22:00",5.59282932461035,"Approved","OW463"
"2023-05-13 23:00",5.58783057533192,"Approved","OW463"
"2023-05-14 00:00",5.58183182605349,"Approved","OW463"
"2023-05-14 01:00",5.57783307677506,"Approved","OW463"
"2023-05-14 02:00",5.57483432749663,"Approved","OW463"
"2023-05-14 03:00",5.5748355782182,"Approved","OW463"
"2023-05-14 04:00",5.57783682893977,"Approved","OW463"
"2023-05-14 05:00",5.58183807966134,"Approved","OW463"
"2023-05-14 06:00",5.58483933038291,"Approved","OW463"
"2023-05-14 07:00",5.58984058110448,"Approved","OW463"
"2023-05-14 08:00",5.58984183182605,"Approved","OW463"
"2023-05-14 09:00",5.59084308254762,"Approved","OW463"
"2023-05-14 10:00",5.58884433326919,"Approved","OW463"
"2023-05-14 11:00",5.58784558399076,"Approved","OW463"
"2023-05-14 12:00",5.58784683471233,"Approved","OW463"
"2023-05-14 13:00",5.5878480854339,"Approved","OW463"
"2023-05-14 14:00",5.58884933615547,"Approved","OW463"
"2023-05-14 15:00",5.58785058687704,"Approved","OW463"
"2023-05-14 16:00",5.58685183759861,"Approved","OW463"
"2023-05-14 17:00",5.58485308832018,"Approved","OW463"
"2023-05-14 18:00",5.58185433904176,"Approved","OW463"
"2023-05-14 19:00",5.57885558976333,"Approved","OW463"
"2023-05-14 20:00",5.57485684048489,"Approved","OW463"
"2023-05-14 21:00",5.57385809120647,"Approved","OW463"
"2023-05-14 22:00",5.57185934192804,"Approved","OW463"
"2023-05-14 23:00",5.56986059264961,"Approved","OW463"
"2023-05-15 00:00",5.56786184337118,"Approved","OW463"
"2023-05-15 01:00",5.56886309409275,"Approved","OW463"
"2023-05-15 02:00",5.56986434481432,"Approved","OW463"
"2023-05-15 03:00",5.57286559553589,"Approved","OW463"
"2023-05-15 04:00",5.57786684625746,"Approved","OW463"
"2023-05-15 05:00",5.58486809697903,"Approved","OW463"
"2023-05-15 06:00",5.5878693477006,"Approved","OW463"
"2023-05-15 07:00",5.59087059842217,"Approved","OW463"
"2023-05-15 08:00",5.59187184914374,"Approved","OW463"
"2023-05-15 09:00",5.59087309986531,"Approved","OW463"
"2023-05-15 10:00",5.58987435058688,"Approved","OW463"
"2023-05-15 11:00",5.58887560130845,"Approved","OW463"
"2023-05-15 12:00",5.58787685203002,"Approved","OW463"
"2023-05-15 13:00",5.58687810275159,"Approved","OW463"
"2023-05-15 14:00",5.58887935347316,"Approved","OW463"
"2023-05-15 15:00",5.59188060419473,"Approved","OW463"
"2023-05-15 16:00",5.5918818549163,"Approved","OW463"
"2023-05-15 17:00",5.59188310563787,"Approved","OW463"
"2023-05-15 18:00",5.58988435635944,"Approved","OW463"
"2023-05-15 19:00",5.58888560708101,"Approved","OW463"
"2023-05-15 20:00",5.58788685780258,"Approved","OW463"
"2023-05-15 21:00",5.58688810852415,"Approved","OW463"
"2023-05-15 22:00",5.58588935924572,"Approved","OW463"
"2023-05-15 23:00",5.58389060996729,"Approved","OW463"
"2023-05-16 00:00",5.58189186068886,"Approved","OW463"
"2023-05-16 01:00",5.58189311141043,"Approved","OW463"
"2023-05-16 02:00",5.580894362132,"Approved","OW463"
"2023-05-16 03:00",5.58389561285357,"Approved","OW463"
"2023-05-16 04:00",5.58789686357514,"Approved","OW463"
"2023-05-16 05:00",5.59389811429671,"Approved","OW463"
"2023-05-16 06:00",5.59889936501828,"Approved","OW463"
"2023-05-16 07:00",5.60190061573985,"Approved","OW463"
"2023-05-16 08:00",5.61390186646142,"Approved","OW463"
"2023-05-16 09:00",5.61990311718299,"Approved","OW463"
"2023-05-16 10:00",5.62190436790456,"Approved","OW463"
"2023-05-16 11:00",5.62190561862613,"Approved","OW463"
"2023-05-16 12:00",5.6209068693477,"Approved","OW463"
"2023-05-16 13:00",5.61990812006927,"Approved","OW463"
"2023-05-16 14:00",5.61990937079084,"Approved","OW463"
"2023-05-16 15:00",5.62191062151241,"Approved","OW463"
"2023-05-16 16:00",5.62291187223398,"Approved","OW463"
"2023-05-16 17:00",5.62291312295555,"Approved","OW463"
"2023-05-16 18:00",5.62091437367712,"Approved","OW463"
"2023-05-16 19:00",5.61991562439869,"Approved","OW463"
"2023-05-16 20:00",5.61491687512026,"Approved","OW463"
"2023-05-16 21:00",5.61091812584183,"Approved","OW463"
"2023-05-16 22:00",5.6059193765634,"Approved","OW463"
"2023-05-16 23:00",5.60092062728497,"Approved","OW463"
"2023-05-17 00:00",5.59792187800654,"Approved","OW463"
"2023-05-17 01:00",5.59592312872811,"Approved","OW463"
"2023-05-17 02:00",5.59392437944968,"Approved","OW463"
"2023-05-17 03:00",5.59692563017125,"Approved","OW463"
"2023-05-17 04:00",5.59792688089282,"Approved","OW463"
"2023-05-17 05:00",5.60292813161439,"Approved","OW463"
"2023-05-17 06:00",5.60592938233596,"Approved","OW463"
"2023-05-17 07:00",5.60393063305753,"Approved","OW463"
"2023-05-17 08:00",5.6049318837791,"Approved","OW463"
"2023-05-17 09:00",5.60493313450067,"Approved","OW463"
"2023-05-17 10:00",5.60393438522224,"Approved","OW463"
"2023-05-17 11:00",5.60493563594381,"Approved","OW463"
"2023-05-17 12:00",5.60393688666538,"Approved","OW463"
"2023-05-17 13:00",5.60393813738695,"Approved","OW463"
"2023-05-17 14:00",5.60493938810852,"Approved","OW463"
"2023-05-17 15:00",5.60594063883009,"Approved","OW463"
"2023-05-17 16:00",5.60394188955166,"Approved","OW463"
"2023-05-17 17:00",5.60194314027323,"Approved","OW463"
"2023-05-17 18:00",5.5999443909948,"Approved","OW463"
"2023-05-17 19:00",5.59694564171637,"Approved","OW463"
"2023-05-17 20:00",5.59494689243795,"Approved","OW463"
"2023-05-17 21:00",5.59094814315951,"Approved","OW463"
"2023-05-17 22:00",5.58894939388109,"Approved","OW463"
"2023-05-17 23:00",5.58595064460266,"Approved","OW463"
"2023-05-18 00:00",5.58295189532422,"Approved","OW463"
"2023-05-18 01:00",5.5809531460458,"Approved","OW463"
"2023-05-18 02:00",5.57995439676737,"Approved","OW463"
"2023-05-18 03:00",5.57995564748894,"Approved","OW463"
"2023-05-18 04:00",5.58395689821051,"Approved","OW463"
"2023-05-18 05:00",5.58895814893208,"Approved","OW463"
"2023-05-18 06:00",5.59295939965365,"Approved","OW463"
"2023-05-18 07:00",5.59596065037522,"Approved","OW463"
"2023-05-18 08:00",5.59896190109679,"Approved","OW463"
"2023-05-18 09:00",5.60096315181836,"Approved","OW463"
"2023-05-18 10:00",5.60296440253993,"Approved","OW463"
"2023-05-18 11:00",5.6019656532615,"Approved","OW463"
"2023-05-18 12:00",5.60396690398307,"Approved","OW463"
"2023-05-18 13:00",5.60496815470464,"Approved","OW463"
"2023-05-18 14:00",5.60696940542621,"Approved","OW463"
"2023-05-18 15:00",5.60997065614778,"Approved","OW463"
"2023-05-18 16:00",5.61197190686935,"Approved","OW463"
"2023-05-18 17:00",5.61397315759092,"Approved","OW463"
"2023-05-18 18:00",5.61497440831249,"Approved","OW463"
"2023-05-18 19:00",5.61497565903406,"Approved","OW463"
"2023-05-18 20:00",5.61197690975563,"Approved","OW463"
"2023-05-18 21:00",5.6169781604772,"Approved","OW463"
"2023-05-18 22:00",5.61497941119877,"Approved","OW463"
"2023-05-18 23:00",5.61498066192034,"Approved","OW463"
"2023-05-19 00:00",5.61598191264191,"Approved","OW463"
"2023-05-19 01:00",5.61598316336348,"Approved","OW463"
"2023-05-19 02:00",5.61798441408505,"Approved","OW463"
"2023-05-19 03:00",5.61898566480662,"Approved","OW463"
"2023-05-19 04:00",5.62198691552819,"Approved","OW463"
"2023-05-19 05:00",5.62598816624976,"Approved","OW463"
"2023-05-19 06:00",5.62998941697133,"Approved","OW463"
"2023-05-19 07:00",5.6319906676929,"Approved","OW463"
"2023-05-19 08:00",5.63199191841447,"Approved","OW463"
"2023-05-19 09:00",5.63199316913604,"Approved","OW463"
"2023-05-19 10:00",5.63199441985761,"Approved","OW463"
"2023-05-19 11:00",5.63499567057918,"Approved","OW463"
"2023-05-19 12:00",5.63699692130075,"Approved","OW463"
"2023-05-19 13:00",5.63799817202232,"Approved","OW463"
"2023-05-19 14:00",5.63899942274389,"Approved","OW463"
"2023-05-19 15:00",5.64000067346546,"Approved","OW463"
"2023-05-19 16:00",5.63900192418703,"Approved","OW463"
"2023-05-19 17:00",5.6370031749086,"Approved","OW463"
"2023-05-19 18:00",5.63500442563017,"Approved","OW463"
"2023-05-19 19:00",5.63200567635174,"Approved","OW463"
"2023-05-19 20:00",5.62900692707331,"Approved","OW463"
"2023-05-19 21:00",5.62600817779488,"Approved","OW463"
"2023-05-19 22:00",5.62400942851645,"Approved","OW463"
"2023-05-19 23:00",5.62201067923802,"Approved","OW463"
"2023-05-20 00:00",5.61801192995959,"Approved","OW463"
"2023-05-20 01:00",5.61601318068116,"Approved","OW463"
"2023-05-20 02:00",5.61501443140273,"Approved","OW463"
"2023-05-20 03:00",5.6120156821243,"Approved","OW463"
"2023-05-20 04:00",5.61401693284587,"Approved","OW463"
"2023-05-20 05:00",5.62001818356744,"Approved","OW463"
"2023-05-20 06:00",5.62401943428901,"Approved","OW463"
"2023-05-20 07:00",5.62602068501058,"Approved","OW463"
"2023-05-20 08:00",5.62902193573215,"Approved","OW463"
"2023-05-20 09:00",5.62902318645372,"Approved","OW463"
"2023-05-20 10:00",5.63002443717529,"Approved","OW463"
"2023-05-20 11:00",5.63102568789686,"Approved","OW463"
"2023-05-20 12:00",5.63302693861843,"Approved","OW463"
"2023-05-20 13:00",5.63402818934,"Approved","OW463"
"2023-05-20 14:00",5.63702944006157,"Approved","OW463"
"2023-05-20 15:00",5.64003069078314,"Approved","OW463"
"2023-05-20 16:00",5.64103194150471,"Approved","OW463"
"2023-05-20 17:00",5.63903319222628,"Approved","OW463"
"2023-05-20 18:00",5.63603444294785,"Approved","OW463"
"2023-05-20 19:00",5.63403569366942,"Approved","OW463"
"2023-05-20 20:00",5.63103694439099,"Approved","OW463"
"2023-05-20 21:00",5.63003819511257,"Approved","OW463"
"2023-05-20 22:00",5.62803944583414,"Approved","OW463"
"2023-05-20 23:00",5.62604069655571,"Approved","OW463"
"2023-05-21 00:00",5.62304194727728,"Approved","OW463"
"2023-05-21 01:00",5.62304319799884,"Approved","OW463"
"2023-05-21 02:00",5.62104444872042,"Approved","OW463"
"2023-05-21 03:00",5.62504569944199,"Approved","OW463"
"2023-05-21 04:00",5.62804695016356,"Approved","OW463"
"2023-05-21 05:00",5.63004820088513,"Approved","OW463"
"2023-05-21 06:00",5.6340494516067,"Approved","OW463"
"2023-05-21 07:00",5.63505070232827,"Approved","OW463"
"2023-05-21 08:00",5.63705195304984,"Approved","OW463"
"2023-05-21 09:00",5.63805320377141,"Approved","OW463"
"2023-05-21 10:00",5.64005445449298,"Approved","OW463"
"2023-05-21 11:00",5.64105570521455,"Approved","OW463"
"2023-05-21 12:00",5.64305695593612,"Approved","OW463"
"2023-05-21 13:00",5.64605820665769,"Approved","OW463"
"2023-05-21 14:00",5.64805945737926,"Approved","OW463"
"2023-05-21 15:00",5.64806070810083,"Approved","OW463"
"2023-05-21 16:00",5.6500619588224,"Approved","OW463"
"2023-05-21 17:00",5.65006320954397,"Approved","OW463"
"2023-05-21 18:00",5.65106446026554,"Approved","OW463"
"2023-05-21 19:00",5.65006571098711,"Approved","OW463"
"2023-05-21 20:00",5.65006696170868,"Approved","OW463"
"2023-05-21 21:00",5.64806821243025,"Approved","OW463"
"2023-05-21 22:00",5.64506946315182,"Approved","OW463"
"2023-05-21 23:00",5.64307071387339,"Approved","OW463"
"2023-05-22 00:00",5.64107196459496,"Approved","OW463"
"2023-05-22 01:00",5.63807321531653,"Approved","OW463"
"2023-05-22 02:00",5.6410744660381,"Approved","OW463"
"2023-05-22 03:00",5.64007571675967,"Approved","OW463"
"2023-05-22 04:00",5.64107696748124,"Approved","OW463"
"2023-05-22 05:00",5.64207821820281,"Approved","OW463"
"2023-05-22 06:00",5.64307946892438,"Approved","OW463"
"2023-05-22 07:00",5.64508071964595,"Approved","OW463"
"2023-05-22 08:00",5.64608197036752,"Approved","OW463"
"2023-05-22 09:00",5.64508322108909,"Approved","OW463"
"2023-05-22 10:00",5.64508447181066,"Approved","OW463"
"2023-05-22 11:00",5.64508572253223,"Approved","OW463"
"2023-05-22 12:00",5.6440869732538,"Approved","OW463"
"2023-05-22 13:00",5.64308822397537,"Approved","OW463"
"2023-05-22 14:00",5.64308947469694,"Approved","OW463"
"2023-05-22 15:00",5.64409072541851,"Approved","OW463"
"2023-05-22 16:00",5.64509197614008,"Approved","OW463"
"2023-05-22 17:00",5.64609322686165,"Approved","OW463"
"2023-05-22 18:00",5.64709447758322,"Approved","OW463"
"2023-05-22 19:00",5.64909572830479,"Approved","OW463"
"2023-05-22 20:00",5.65009697902636,"Approved","OW463"
"2023-05-22 21:00",5.65209822974793,"Approved","OW463"
"2023-05-22 22:00",5.6530994804695,"Approved","OW463"
"2023-05-22 23:00",5.65410073119107,"Approved","OW463"
"2023-05-23 00:00",5.65310198191264,"Approved","OW463"
"2023-05-23 01:00",5.65210323263421,"Approved","OW463"
"2023-05-23 02:00",5.65110448335578,"Approved","OW463"
"2023-05-23 03:00",5.65010573407735,"Approved","OW463"
"2023-05-23 04:00",5.64910698479892,"Approved","OW463"
"2023-05-23 05:00",5.65010823552049,"Approved","OW463"
"2023-05-23 06:00",5.65110948624206,"Approved","OW463"
"2023-05-23 07:00",5.65111073696363,"Approved","OW463"
"2023-05-23 08:00",5.6521119876852,"Approved","OW463"
"2023-05-23 09:00",5.65311323840677,"Approved","OW463"
"2023-05-23 10:00",5.65211448912834,"Approved","OW463"
"2023-05-23 11:00",5.65011573984991,"Approved","OW463"
"2023-05-23 12:00",5.65111699057148,"Approved","OW463"
"2023-05-23 13:00",5.65111824129305,"Approved","OW463"
"2023-05-23 14:00",5.65211949201462,"Approved","OW463"
"2023-05-23 15:00",5.65212074273619,"Approved","OW463"
"2023-05-23 16:00",5.65312199345776,"Approved","OW463"
"2023-05-23 17:00",5.65312324417933,"Approved","OW463"
"2023-05-23 18:00",5.6531244949009,"Approved","OW463"
"2023-05-23 19:00",5.65312574562247,"Approved","OW463"